This is the latest recevied weather packets stored in our database for station/object BM2MWA-13. If no packets are shown the sender has not sent any weather packets the latest 10 day(s).
| Time | Temp. | Humidity | Pressure | Rain* | Wind** | Luminosity | Snow |
|---|---|---|---|---|---|---|---|
| 1777897623 | 17.22° C | 84% | 1015.8 hPa | 2.03 mm | - | - | - |
| 1777897023 | 17.22° C | 86% | 1016 hPa | 3.05 mm | - | - | - |
| 1777896424 | 17.22° C | 84% | 1015.9 hPa | 3.56 mm | - | - | - |
| 1777895824 | 16.67° C | 85% | 1015.9 hPa | 4.06 mm | - | - | - |
| 1777895223 | 17.22° C | 85% | 1015.8 hPa | 4.06 mm | - | - | - |
| 1777894624 | 17.22° C | 84% | 1015.7 hPa | 5.08 mm | - | - | - |
| 1777894023 | 17.22° C | 83% | 1015.5 hPa | 5.08 mm | - | - | - |
| 1777893424 | 17.78° C | 82% | 1015.5 hPa | 5.08 mm | - | - | - |
| 1777892823 | 17.22° C | 79% | 1015.4 hPa | 4.06 mm | - | - | - |
| 1777892223 | 17.22° C | 79% | 1015.3 hPa | 4.06 mm | - | - | - |
| 1777891623 | 17.78° C | 78% | 1015.4 hPa | 3.56 mm | - | - | - |
| 1777891023 | 18.33° C | 71% | 1015.1 hPa | 2.54 mm | - | - | - |
| 1777890423 | 19.44° C | 66% | 1015 hPa | 1.52 mm | - | - | - |
| 1777889823 | 19.44° C | 63% | 1014.6 hPa | 0.51 mm | - | - | - |
| 1777889223 | 20° C | 67% | 1014.4 hPa | 0.51 mm | - | - | - |
| 1777888624 | 20.56° C | 62% | 1014.3 hPa | 0 mm | - | - | - |
| 1777888023 | 21.67° C | 52% | 1013.9 hPa | 0 mm | - | - | - |
| 1777887424 | 21.67° C | 51% | 1013.8 hPa | 0 mm | - | - | - |
| 1777886824 | 21.67° C | 62% | 1013.6 hPa | 0 mm | - | - | - |
| 1777886223 | 21.67° C | 63% | 1013.1 hPa | 0 mm | - | - | - |
| 1777885624 | 22.22° C | 60% | 1013.4 hPa | 0 mm | - | - | - |
| 1777885024 | 22.22° C | 60% | 1013.3 hPa | 0 mm | - | - | - |
| 1777884423 | 22.22° C | 60% | 1013.3 hPa | 0 mm | - | - | - |
| 1777883823 | 22.22° C | 62% | 1013.2 hPa | 0 mm | - | - | - |
| 1777883223 | 22.22° C | 63% | 1013.3 hPa | 0 mm | - | - | - |
* Rain latest hour (hover to see other rain measurements)
** Current wind speed in m/s (hover to see current wind gust speed)